Weather in Uglekamensk

Russia / Primorsky Krai     43°13′11″N   133°13′51″E
temp.,
°C
wind,
m/s
gust,
m/s
humid.,
%
clouds,
%
prec.,
mm/h
press.,
hPa
HPBL,
m
8 may, sat
sat801:00+6ssw3896100 0.9 9911080
04:00+8w41391100 2.1 9941262
07:00+6ssw129710 0.0 997101
10:00+12ssw2567100 0.0 997820
13:00+16s3104097 0.0 9961363
16:00+15s6114985 0.0 9931172
19:00+12ssw4165976 0.0 9931754
22:00+8s2697100 5.1 992405
9 may, sun
sun901:00+7ssw1296100 8.2 992149
04:00+6s259692 8.5 992384
07:00+6wsw1494100 0.4 993867
10:00+5w2796100 1.1 995833
13:00+5w2896100 0.6 9971009
16:00+5wnw2996100 1.3 999892
19:00+6nw3889100 0.3 1001960
22:00+5nw2694100 0.5 1004625
10 may, mon
mon1001:00+5w1295100 0.1 1004169
04:00+4wnw1197100 0.4 100569
07:00+4nnw1697100 0.2 1007855
10:00+4nnw1797100 0.4 1009894
13:00+6nnw1592100 0.1 1010811
16:00+7nnw2689100 0.1 1011871
19:00+7n288771 0.0 1012793
22:00+3n229644 0.0 101426
11 may, tue
tue1101:00+2nnw119666 0.0 101512
04:00+2nne1296100 0.0 101523
07:00+4nne11906 0.0 101638
10:00+12n24545 0.0 10151233
13:00+16nnw243889 0.0 10142409
16:00+11s456865 0.4 1015562
19:00+11s35714 0.2 1016566
22:00+5sse1289100 0.2 101968
12 may, wed
wed1201:00+3sse1196100 0.0 102018
04:00+3se1195100 0.0 101929
07:00+4se129199 0.0 101998
10:00+9s3466100 0.0 1018702
13:00+11ssw4663100 0.1 1017954
16:00+12ssw4657100 0.3 10151048
19:00+9s3572100 0.0 1015494
22:00+5sse1293100 0.0 101654